DMSP 5D-2 F13 DEB

Satellite information

Favourite Embed

Satellite Type and Status

DEBRISIN ORBIT

Key statistics

Satellite DMSP 5D-2 F13 DEB at a glance.

Uptime

11223

Days in orbit

Revolutions

≈ 14.0

Per day

Orbit

SSO

Sun Synchronous Orbit

Inclination

98.7

Latest

Satellite identification and parameters

Extended collection of information and parameters for DMSP 5D-2 F13 DEB.

Object identification

Identified? True

Debris? True

Object name: DMSP 5D-2 F13 DEB

International designator: 1995-015BR

Object number (NORAD): 40473

Object ID (CCSDS): 40473

Country: UNITED STATES OF AMERICA (US)

Current information (Y/N): Y

RCS size: SMALL

Orbital parameters

Period: 102.923 minutes

Inclination: 98.7215 deg

SMA: 7275.018 km

Apoapsis: 984.65 km

Periapsis: 809.117 km

RAAN: 191.4035 deg

Eccentricy: 0.01206406

Argument of periapsis: 181.0269 deg

Mean anomaly: 179.0666 deg

Mean motion: 13.991092 rev/day

Mean motion (dot): 0.00003054 rev/day2

B* drag term: 0.0020076392 1/REarth

Two-line elements (TLE)

Creation date: Dec. 11, 2025, 3:54 a.m.

Reference frame: TEME

Reference center: EARTH

Epoch: Dec. 10, 2025, 8:02 p.m. UTC

TLE line 0: 0 DMSP 5D-2 F13 DEB

TLE line 1: 1 40473U 95015BR 25344.83509112 .00003054 00000-0 20076-2 0 9994

TLE line 2: 2 40473 98.7215 191.4035 0120641 181.0269 179.0666 13.99109200546213

Live tracking on map

Real-time ground track for satellite DMSP 5D-2 F13 DEB.

In-orbit conjunctions

A list of the most updated potential collisions computed for object DMSP 5D-2 F13 DEB.

Target Orbit TCA Probability of collision Miss distance Type
THORAD AGENA D DEB LEO 2025-06-10 09:23:40 0.0001244092 339.0 (m) DEBRIS
CZ-6A DEB LEO 2024-11-18 10:32:47 0.0001413989 597.0 (m) DEBRIS
COSMOS 2251 DEB LEO 2024-11-13 13:39:28 0.0004250635 578.0 (m) DEBRIS
CZ-6A DEB LEO 2024-10-12 08:49:22 0.0001005775 380.0 (m) DEBRIS

Associated space launch

Military meteorological satellite

DMSP 5D-2 F13 DEB was lifted into orbit during the mission ‘Atlas E | DMSP-5D2 F13’, on board a Atlas E space rocket.

The launch took place on March 24, 1995, 2:05 p.m. from Space Launch Complex 3W.

For more information about the launch, click the button.

Launch to space Atlas E | DMSP-5D2 F13
Atlas E | DMSP-5D2 F13

Agency: N/A

Status: Launch Successful

Launch date: March 24, 1995, 2:05 p.m. UTC

Rocket: Atlas E

Launch pad: Space Launch Complex 3W

Location: Vandenberg SFB, CA, USA

...

Latest news about this satellite

There are no fresh news available about this satellite. Check back as we update our databases every day.


Newsletter sign-up

Weekly statistics, charts and insights to help you stay on top of the space industry.